Location: Newark
(44.2003°N, 3.2583°E)
Time: 14:54:05
(UTC+00:00)

Envisat - Pass Details

Date: 28 September 2019
Orbit: 764 x 766 km, 98.1° (Epoch: 22 October)

Event Time Altitude Azimuth Distance (km) Brightness Sun altitude
Rises 19:26:32 0° 219° (SW) 3,222 6.5 -20.7°
Reaches altitude 10° 19:30:25 10° 249° (WSW) 2,302 6.2 -21.4°
Maximum altitude 19:32:23 12° 273° (W) 2,158 6.3 -21.7°
Drops below altitude 10° 19:34:21 10° 296° (WNW) 2,309 6.6 -22.0°
Sets 19:38:16 0° 326° (NW) 3,242 7.1 -22.7°
